Orbital Elements at Epoch 2459200.5 (2020-Dec-17.0) TDB
Reference: JPL 18 (heliocentric ecliptic J2000)
Element | Value | Uncertainty (1-sigma) | Units |
e | .2438094808433473 | 4.8069e-08 | |
a | 2.304955411334443 | 9.2881e-09 | au |
q | 1.742985429129928 | 1.1067e-07 | au |
i | 4.037291504588293 | 4.4338e-06 | deg |
node | 344.6107458376727 | 6.8632e-05 | deg |
peri | 325.458945099857 | 7.2061e-05 | deg |
M | 79.72165559234615 | 2.5772e-05 | deg |
tp | 2458917.448130240609 (2020-Mar-08.94813024) | 9.1498e-05 | TDB |
period | 1278.180594171753 3.50 | 7.7259e-06 2.115e-08 | d yr |
n | .2816503408372241 | 1.7024e-09 | deg/d |
Q | 2.866925393538958 | 1.1553e-08 | au |
|
| | Orbit Determination Parameters
Additional Information
|